Location: Johnson City
(36.3130°N, 82.3540°W)
Time: 11:19:13
(UTC-05:00)

N. Korean satellite - Pass Details

Date: 08 December 2021
Orbit: 446 x 492 km, 97.3° (Epoch: 17 January)

Event Time Altitude Azimuth Distance (km) Brightness Sun altitude
Rises 17:47:52 0° 201° (SSW) 2,521 10.9 -6.9°
Reaches altitude 10° 17:50:26 10° 221° (SW) 1,638 10.4 -7.4°
Maximum altitude 17:52:53 18° 265° (W) 1,234 9.8 -7.9°
Drops below altitude 10° 17:55:18 10° 309° (NW) 1,627 9.6 -8.3°
Sets 17:57:51 0° 330° (NNW) 2,497 10.3 -8.8°
